This is the latest recevied weather packets stored in our database for station/object NN5DX-12. If no packets are shown the sender has not sent any weather packets the latest 10 day(s).
| Time | Temp. | Humidity | Pressure | Rain* | Wind** | Luminosity | Snow |
|---|---|---|---|---|---|---|---|
| 1777760717 | 15° C | 18% | 1023.6 hPa | 0 mm | - | - | - |
| 1777760417 | 14.44° C | 20% | 1023.7 hPa | 0 mm | - | - | - |
| 1777760117 | 14.44° C | 19% | 1023.8 hPa | 0 mm | - | - | - |
| 1777759817 | 15° C | 18% | 1023.8 hPa | 0 mm | - | - | - |
| 1777759517 | 15° C | 20% | 1023.9 hPa | 0 mm | - | - | - |
| 1777759217 | 14.44° C | 19% | 1024 hPa | 0 mm | - | - | - |
| 1777758916 | 14.44° C | 19% | 1024.2 hPa | 0 mm | - | - | - |
| 1777758617 | 14.44° C | 19% | 1024.2 hPa | 0 mm | - | - | - |
| 1777758317 | 14.44° C | 21% | 1024.4 hPa | 0 mm | - | - | - |
| 1777758016 | 14.44° C | 19% | 1023.9 hPa | 0 mm | - | - | - |
| 1777757717 | 14.44° C | 20% | 1024.6 hPa | 0 mm | - | - | - |
| 1777757417 | 14.44° C | 21% | 1024.6 hPa | 0 mm | - | - | - |
| 1777757117 | 14.44° C | 23% | 1024.7 hPa | 0 mm | - | - | - |
| 1777756817 | 14.44° C | 21% | 1024.3 hPa | 0 mm | - | - | - |
| 1777756516 | 14.44° C | 21% | 1024.8 hPa | 0 mm | - | - | - |
| 1777756216 | 13.89° C | 24% | 1024.5 hPa | 0 mm | - | - | - |
| 1777755916 | 13.89° C | 23% | 1024.4 hPa | 0 mm | - | - | - |
| 1777755616 | 13.89° C | 24% | 1024.5 hPa | 0 mm | - | - | - |
| 1777755317 | 13.33° C | 26% | 1024.7 hPa | 0 mm | - | - | - |
| 1777755016 | 13.33° C | 27% | 1024.8 hPa | 0 mm | - | - | - |
| 1777754717 | 12.78° C | 26% | 1024.2 hPa | 0 mm | - | - | - |
| 1777754417 | 12.78° C | 26% | 1024.3 hPa | 0 mm | - | - | - |
| 1777754117 | 12.78° C | 26% | 1024.5 hPa | 0 mm | - | - | - |
| 1777753816 | 13.33° C | 27% | 1025 hPa | 0 mm | - | - | - |
| 1777753516 | 13.89° C | 26% | 1025.1 hPa | 0 mm | - | - | - |
* Rain latest hour (hover to see other rain measurements)
** Current wind speed in m/s (hover to see current wind gust speed)